weather.gov     
National Weather Service

Terminal Aerodrome Forecast
NWS Homepage
This page is being discontinued on March 12, 2014.
The same data is available at this site. Please update your bookmarks.
Thank you, and we apologize for the inconvenience.
Please send an email to SR-SRH.Webmaster@noaa.gov with any concerns.


Current Version
Previous Version:    01  02  03  04  05  06  07  08  09  10  11  12  13  14  15  16  17  18  19  20  21  22  23  24  25  26  27  28  29  30  
   31  32  33  34  35  
[Printable]
025
FTUS45 KGID 230118 AAC
TAFEAR
TAF AMD
KEAR 230118Z 2301/2324 VRB06KT 1/4SM FG OVC002
     FM230200 VRB06KT P6SM SCT150
     FM230600 VRB06KT 3SM BR SCT150
     FM231400 17007KT P6SM FEW150
      AMD LTD TO CLD VIS AND WIND=


025
FTUS45 KGID 230118 AAC
TAFEAR
TAF AMD
KEAR 230118Z 2301/2324 VRB06KT 1/4SM FG OVC002
     FM230200 VRB06KT P6SM SCT150
     FM230600 VRB06KT 3SM BR SCT150
     FM231400 17007KT P6SM FEW150
      AMD LTD TO CLD VIS AND WIND=




U.S. Dept. of Commerce
NOAA National Weather Service
1325 East West Highway
Silver Spring, MD 20910
E-mail: w-nws.webmaster@noaa.gov
Page last modified: May 16, 2007
NATIONAL WEATHER SERVICE: for Safety, for Work, for Fun - FOR LIFE